sat.trackr.live / text

‹ back to catalog

STARLINK-11085 [DTC]

NORAD 59425 · 2024-065E

PAYLOAD ACTIVE UNKNOWN

§ Identity

Operator
Country
US
Launch date
2024-04-07
Launch site
AFWTR
Launch vehicle
Mass (kg)
RCS (m²)

Purposes: comms

External: N2YO · Heavens-Above · Gunter

§ Orbital elements

Epoch: 2026-05-25T02:07:30.730368Z

Period
91.74 min
Inclination
53.1591°
Eccentricity
0.0001057
Mean motion
15.69709004 rev/d
Perigee alt
359.0 km
Apogee alt
360.4 km
Semi-major
6,737.9 km
B*
1.9557e-5
RAAN
77.1728°
Arg perigee
102.1983°
Mean anomaly
257.9153°
Rev number
12,347

§ Raw data

STARLINK-11085 [DTC]1 59425U 24065E   26145.08855012  .00001781  00000+0  19557-4 0  99962 59425  53.1591  77.1728 0001057 102.1983 257.9153 15.69709004123470

JSON: /api/v1/satellites/59425 · /tle

For live sub-satellite position, see the globe view (requires WebGL).

§ Visibility from observer

Set your observer location to see the next 7 days of passes ≥ 10°. The values pass through the URL so the page stays shareable.

No JS? Fill the form by hand. The geolocation button needs JavaScript.